Temperature
22 23 22 22 21 21 21 20 20 20 20 20 20 20 20 19 19 19 19 19 19 19 18 18 18 18 19 19 19 19 19 19 19 19 19 19 18 18 18 17 17 18 17
22 23 22 21 21 21 21 20 20 20 20 20 19 19 19 19 19 19 19 19 19 18 18 18 18 19 19 19 19 19 19 19 19 18 18 18 18 18 17 17 17 18 17
23 23 22 21 21 21 20 20 20 20 20 19 19 19 19 19 19 19 19 19 19 19 19 19 19 19 19 19 19 19 19 18 18 18 18 18 18 18 17 17 17 18 18
22 22 22 21 21 21 20 20 20 20 20 19 19 19 19 19 19 19 19 19 19 19 19 19 19 19 19 19 19 19 18 18 18 18 17 17 18 18 18 18 18 18 18
21 22 22 21 21 20 20 20 20 20 19 19 19 19 19 19 19 19 19 19 19 19 19 19 19 19 19 19 19 19 18 18 18 18 17 18 18 18 18 18 18 18 18
21 22 22 21 21 20 20 20 20 20 19 19 19 19 19 19 19 19 19 19 19 19 19 19 19 19 19 19 19 19 18 18 18 18 18 18 18 18 18 18 18 18 18
21 21 22 21 21 20 20 20 20 20 19 19 19 19 19 19 19 19 19 19 19 19 19 19 19 19 19 19 19 19 19 18 18 18 18 18 18 18 18 18 18 18 18
21 21 22 21 21 20 20 20 20 20 19 19 19 19 19 19 19 19 19 19 19 19 18 18 19 19 19 19 19 19 19 19 18 18 18 18 18 19 18 18 18 18 18
22 21 21 21 20 20 20 20 20 20 19 19 19 19 19 19 19 19 19 19 19 19 19 18 19 19 19 19 19 19 19 19 19 18 18 18 19 19 19 18 18 18 18
22 21 20 20 20 20 20 20 20 20 19 19 19 19 19 19 19 19 19 19 19 19 19 19 18 18 19 19 19 19 19 19 19 19 18 18 18 19 19 18 18 18 18
22 21 21 20 20 19 19 19 19 19 19 19 19 19 19 19 18 18 18 18 18 18 18 18 18 18 19 19 19 19 19 19 19 19 18 18 18 19 19 18 18 18 18
22 22 21 20 20 19 19 19 19 19 19 19 19 18 18 18 18 18 18 18 18 18 18 18 18 18 18 18 18 18 19 19 19 18 19 19 19 19 19 18 18 18 18
22 22 21 20 20 20 19 19 19 19 19 19 18 18 18 18 18 18 18 18 18 18 18 18 18 18 18 18 18 18 18 18 18 18 18 18 18 18 18 18 18 18 18
22 21 21 20 20 20 19 19 19 19 19 19 18 18 18 18 18 18 18 18 18 17 17 18 18 18 18 18 18 18 18 18 18 18 18 18 18 18 18 18 18 18 18
21 21 20 20 19 19 19 19 19 19 19 18 18 18 18 18 18 18 18 18 17 17 17 17 17 17 17 17 17 18 18 18 18 18 18 17 17 17 18 18 18 18 18
21 20 20 19 19 19 19 19 19 18 18 18 18 18 18 17 17 17 17 17 17 17 17 17 17 17 17 17 17 17 17 18 18 18 17 17 17 17 18 18 18 18 18
20 20 20 19 19 19 19 18 18 18 18 17 17 17 17 17 17 17 17 17 17 17 16 16 16 16 16 17 17 17 17 17 17 17 17 17 17 17 17 17 18 18 18
20 19 19 19 19 19 18 18 18 18 18 17 17 17 17 17 17 17 16 16 16 16 16 16 16 16 16 16 16 17 17 17 17 17 17 17 17 17 17 17 18 18 18
19 19 19 19 18 18 18 18 18 18 18 17 17 17 17 16 16 16 16 16 16 16 16 16 16 16 16 16 16 16 17 17 17 17 17 17 17 17 17 17 17 17 17
19 19 19 19 18 18 18 18 18 18 17 17 17 17 16 16 16 16 15 15 15 15 15 15 15 15 15 15 15 16 16 16 17 17 17 17 17 17 17 17 17 17 17
19 19 19 18 18 18 18 18 17 17 17 17 17 16 16 16 15 15 15 15 15 15 15 15 15 14 15 15 15 15 16 17 17 17 17 17 17 17 17 17 17 17 17
19 19 19 18 18 18 18 18 18 17 17 17 16 16 15 15 15 15 14 14 14 14 14 14 14 14 14 14 15 15 15 16 17 17 17 17 17 17 17 17 17 17 17
19 19 19 18 18 18 18 17 17 17 17 17 16 16 15 15 14 14 14 14 13 13 13 14 14 14 13 14 14 14 15 16 16 17 17 17 17 17 17 17 17 16 16
19 19 19 18 18 18 17 17 17 16 16 16 16 16 15 15 14 14 13 13 13 13 13 13 13 13 13 13 14 14 14 15 15 15 16 16 16 17 17 16 16 16 16
20 20 19 18 18 18 17 17 16 16 16 16 15 15 15 14 14 14 13 13 13 13 12 13 13 13 13 13 13 13 14 14 14 14 14 15 16 16 16 16 16 16 16
20 20 19 19 18 18 17 16 16 16 15 15 15 15 14 14 14 14 14 13 13 12 12 12 12 12 12 12 12 12 13 13 14 14 14 15 15 16 16 16 16 16 16
Wind_Speed
20 19 19 17 15 14 14 14 14 14 13 13 13 13 13 14 13 13 13 13 12 12 12 11 11 10 10 11 11 11 11 11 12 13 14 14 13 12 11 11 15 16 16
22 20 20 17 15 14 14 14 14 14 13 13 13 13 13 13 12 12 12 11 11 11 11 11 10 10 10 10 10 10 9 9 9 11 12 13 12 11 9 9 14 15 15
22 20 19 17 16 14 13 13 13 13 13 13 13 13 12 12 12 11 10 10 10 11 10 10 10 10 10 9 9 8 7 6 6 7 9 12 12 11 13 17 18 16 14
21 19 18 18 16 15 14 14 14 13 13 13 13 12 12 11 11 10 9 9 9 9 9 9 9 9 9 8 7 6 4 3 2 3 6 9 12 13 13 15 15 14 13
19 20 19 18 16 15 14 14 14 14 14 13 13 12 11 11 10 9 8 8 8 8 8 8 8 8 7 7 6 4 2 2 3 6 3 13 14 13 13 13 13 13 12
20 20 19 18 17 15 14 14 14 13 13 13 12 11 10 9 9 8 8 7 7 7 7 7 7 6 6 5 4 2 2 4 8 6 9 15 14 13 12 12 12 12 11
20 20 19 18 16 15 14 13 13 12 12 11 11 10 9 8 7 7 6 6 6 6 6 6 5 5 5 4 2 1 4 7 9 5 9 15 15 14 13 12 11 11 11
21 19 18 17 16 14 13 12 12 11 10 10 9 9 8 7 7 6 6 5 5 5 5 5 5 4 4 3 2 2 5 9 9 5 10 16 18 16 13 12 12 11 11
21 18 16 16 14 13 12 11 11 10 9 8 8 7 7 6 6 6 6 5 5 5 4 4 4 4 4 4 4 4 6 9 12 8 6 15 19 17 14 13 12 11 11
19 17 15 16 15 13 12 11 11 10 9 8 8 7 6 6 7 7 7 7 6 5 5 5 5 5 6 6 6 7 8 9 11 9 4 14 20 18 16 14 13 12 12
15 14 15 15 13 13 14 14 13 11 10 9 9 9 8 7 8 9 9 9 8 7 6 6 6 7 8 10 11 10 10 10 11 6 6 17 20 19 17 15 14 13 13
12 12 11 12 9 8 10 13 11 11 11 9 8 9 7 4 3 4 7 9 9 7 7 7 7 8 9 9 11 12 10 12 11 5 9 22 21 18 17 17 16 15 15
10 9 12 10 7 5 5 7 4 5 8 6 6 5 3 1 1 0 3 5 5 6 5 4 6 7 7 7 4 8 11 10 7 3 9 21 21 18 17 17 17 17 17
9 9 10 10 6 5 5 3 3 3 3 3 5 3 3 1 2 2 1 1 1 2 2 1 3 5 6 6 6 7 8 8 7 2 7 15 18 19 18 17 18 18 18
9 9 10 9 8 6 5 3 3 3 3 4 4 4 2 1 1 1 1 1 3 2 2 2 3 3 4 6 7 7 7 8 8 6 6 14 17 19 19 18 18 18 19
9 9 10 8 8 5 4 2 2 2 2 3 4 4 2 2 2 1 1 1 3 3 2 3 4 3 4 4 5 6 7 8 8 8 8 11 16 19 19 19 19 19 20
10 9 8 8 7 5 3 1 1 1 3 3 3 3 4 4 3 2 2 2 1 3 4 4 4 4 5 5 6 7 6 8 9 9 10 10 13 18 21 21 21 21 22
10 8 5 7 7 5 4 1 1 2 3 2 3 5 6 5 4 3 2 1 2 4 3 2 3 3 3 3 4 5 5 5 8 10 11 12 13 14 18 23 23 23 24
9 8 7 7 6 5 4 2 2 3 2 1 4 6 5 4 4 4 2 2 4 3 2 4 2 2 3 4 5 6 5 6 6 8 9 11 13 14 14 19 25 26 26
9 8 7 7 6 4 3 2 2 2 1 2 4 5 4 3 5 5 3 3 4 3 3 3 4 3 3 4 7 7 5 6 6 7 8 8 11 14 16 17 18 23 27
9 8 7 6 5 3 2 1 1 1 0 1 3 5 3 3 4 4 3 3 3 3 3 5 4 5 5 4 4 6 6 8 7 7 6 5 6 8 10 12 13 15 18
9 8 6 6 6 3 3 1 0 1 1 0 2 3 3 2 2 4 3 4 4 4 4 4 3 3 5 5 4 5 5 6 4 5 4 6 6 3 4 7 9 11 13
10 9 8 7 6 3 3 1 1 0 2 1 1 1 2 1 2 3 3 3 4 5 4 4 3 4 4 5 5 4 4 4 5 4 4 3 2 2 3 3 6 10 13
10 10 8 7 6 4 2 1 2 2 2 1 1 1 1 2 3 3 3 3 3 4 6 6 4 4 5 5 5 4 5 5 4 5 5 5 3 4 4 5 4 6 9
11 10 9 8 6 5 3 2 2 3 3 3 3 3 2 3 4 4 3 1 2 4 5 5 6 5 5 6 5 5 6 5 5 5 6 6 5 4 4 4 3 4 8
9 9 9 9 7 5 4 3 2 2 3 4 5 4 3 3 3 2 1 1 2 3 5 5 5 6 5 6 5 6 6 6 5 5 6 6 6 4 4 3 4 3 7
Wind_Direction
119 123 120 117 119 122 126 130 130 126 122 118 116 112 109 106 103 99 96 92 88 85 81 80 79 77 74 73 73 73 75 79 83 87 89 89 90 91 94 106 105 97 100
119 122 118 116 117 122 126 130 131 130 128 124 121 118 115 111 108 104 101 96 92 88 84 80 79 79 78 78 78 80 82 87 94 102 106 100 93 84 79 88 97 105 105
117 122 119 115 115 118 123 129 131 132 129 127 124 121 119 116 113 110 106 102 96 92 89 85 83 83 83 82 81 83 86 94 105 126 136 118 104 87 88 94 103 108 108
122 127 120 116 114 114 117 122 128 130 129 127 126 124 122 121 120 116 113 108 103 99 96 93 91 90 88 87 86 83 79 87 126 183 186 133 117 102 101 104 109 112 112
118 115 118 117 114 113 113 114 119 124 126 126 126 125 125 125 124 122 119 115 111 108 102 101 98 98 95 92 90 81 49 342 286 259 137 108 106 116 114 114 116 117 117
121 120 121 119 116 115 114 114 116 122 125 127 128 129 130 130 130 129 127 123 117 114 110 109 106 105 105 101 97 75 333 311 296 271 130 120 120 127 125 126 126 124 124
124 122 125 123 120 120 120 119 119 122 126 130 133 136 137 139 139 140 139 133 128 124 124 122 120 121 123 123 121 310 306 306 288 285 122 120 130 136 135 135 135 134 132
124 123 126 126 126 126 127 128 128 130 134 137 141 144 148 151 153 154 153 151 145 142 144 147 146 150 157 162 182 263 293 300 303 311 128 128 141 144 144 145 145 145 143
122 126 136 136 133 133 135 137 138 140 142 145 148 154 161 170 175 178 178 176 170 165 167 172 175 180 187 199 214 247 276 291 297 285 142 138 149 150 152 155 156 157 157
126 134 140 143 144 149 149 150 152 154 157 162 165 171 184 196 201 203 199 192 188 186 185 190 199 207 211 217 224 237 255 275 272 274 134 147 155 155 159 164 166 168 168
125 134 145 142 151 162 162 159 166 171 176 181 183 190 202 215 210 206 213 192 190 199 202 205 210 217 222 225 225 231 243 252 257 246 144 154 162 162 165 171 176 177 178
126 135 129 133 143 161 156 154 176 177 175 195 186 185 202 224 229 209 178 179 186 199 211 217 230 233 234 235 221 222 236 246 262 245 159 160 168 167 171 177 182 186 186
131 127 123 120 131 134 116 151 148 150 154 183 161 161 180 250 279 177 157 179 191 211 221 212 229 246 249 253 223 214 234 255 265 262 155 166 169 175 181 184 188 192 194
137 125 118 116 114 79 66 69 93 100 121 88 98 91 69 33 355 358 39 62 238 242 233 199 223 251 265 273 259 242 247 255 270 267 164 176 179 183 190 192 194 197 199
128 116 100 100 96 88 76 30 57 61 78 88 92 83 55 30 354 330 333 312 280 271 240 229 240 251 254 255 257 257 264 266 273 272 204 193 195 195 196 199 201 205 205
121 109 105 103 100 94 95 70 31 42 81 74 81 86 70 34 12 345 287 264 267 261 247 239 242 238 241 241 244 251 257 263 270 266 243 214 208 205 205 207 208 211 211
109 102 110 119 113 114 117 130 102 81 87 83 89 89 69 53 20 335 293 277 292 277 250 234 244 241 240 239 238 241 242 242 248 250 250 240 224 217 213 213 214 214 216
113 111 113 116 114 115 110 103 98 90 90 95 116 97 72 47 18 333 321 9 346 299 273 252 245 260 274 279 268 259 252 236 236 237 238 237 233 232 223 220 219 219 220
119 119 110 106 118 120 125 135 115 94 93 107 88 82 68 40 22 355 349 17 325 310 307 312 15 347 317 312 291 262 253 246 237 238 230 230 227 228 230 224 220 221 223
123 121 120 118 120 133 136 139 130 125 146 111 97 91 68 31 33 1 322 26 346 323 326 347 337 312 290 277 283 291 279 261 247 241 238 234 227 225 227 227 218 222 224
127 126 128 128 133 148 135 142 146 130 98 121 131 115 96 42 22 331 333 350 316 321 352 336 331 317 297 275 278 285 276 263 249 233 226 230 236 241 234 223 214 214 219
140 137 141 149 155 165 125 87 111 22 298 228 76 125 121 74 349 321 19 332 341 343 307 286 294 298 300 306 298 297 296 289 284 257 226 220 227 239 260 247 222 219 220
153 160 166 160 153 157 128 198 293 39 294 325 63 140 104 25 316 338 332 324 334 312 317 343 308 296 300 306 295 286 294 301 326 314 317 276 215 211 247 255 246 233 229
168 173 160 155 153 155 168 251 287 278 292 312 326 47 57 311 280 277 285 304 326 322 319 312 359 342 315 303 299 290 279 295 298 307 312 304 273 238 232 248 250 234 237
178 173 164 159 160 166 187 230 279 308 333 355 8 353 325 278 259 244 232 250 314 300 310 327 323 315 309 302 307 311 309 301 271 265 285 296 294 269 245 229 228 232 235
181 175 168 160 160 167 196 226 239 303 334 327 318 303 293 291 282 277 249 113 293 299 315 315 307 295 287 294 300 298 297 294 289 280 279 286 284 279 267 250 233 226 234
Height
1515 1519 1522 1526 1528 1531 1534 1537 1539 1541 1543 1544 1546 1547 1548 1549 1550 1551 1552 1553 1554 1555 1556 1557 1558 1558 1559 1560 1560 1561 1561 1562 1563 1563 1564 1565 1565 1566 1567 1568 1569 1570 1570
1514 1519 1523 1527 1530 1533 1535 1538 1540 1542 1544 1546 1547 1549 1550 1551 1552 1553 1554 1555 1556 1557 1558 1558 1559 1560 1560 1561 1562 1562 1563 1564 1564 1565 1566 1567 1568 1568 1569 1570 1571 1572 1573
1515 1520 1524 1527 1531 1534 1537 1539 1542 1544 1545 1547 1549 1550 1551 1552 1553 1554 1555 1556 1557 1558 1559 1560 1560 1561 1562 1562 1563 1564 1565 1566 1566 1567 1568 1569 1570 1571 1571 1572 1573 1574 1575
1517 1521 1525 1529 1532 1535 1538 1540 1543 1545 1547 1548 1550 1551 1552 1553 1555 1555 1556 1557 1558 1559 1560 1561 1561 1562 1563 1564 1565 1566 1567 1568 1568 1569 1570 1572 1572 1573 1573 1574 1575 1576 1577
1519 1523 1526 1530 1533 1536 1539 1542 1544 1546 1548 1549 1551 1552 1553 1554 1555 1556 1557 1558 1559 1560 1561 1562 1562 1563 1564 1565 1566 1567 1569 1570 1570 1571 1573 1573 1574 1575 1575 1576 1577 1578 1579
1521 1524 1528 1531 1534 1537 1540 1542 1545 1547 1548 1550 1551 1553 1554 1555 1556 1557 1558 1559 1560 1561 1562 1563 1563 1564 1565 1566 1567 1569 1570 1571 1571 1573 1574 1575 1575 1576 1576 1577 1578 1580 1581
1522 1525 1529 1532 1535 1538 1541 1543 1545 1547 1549 1551 1552 1553 1554 1556 1557 1558 1559 1560 1561 1561 1562 1563 1564 1565 1566 1567 1568 1569 1571 1572 1572 1574 1575 1575 1576 1577 1577 1578 1579 1581 1582
1523 1526 1530 1533 1536 1539 1541 1544 1546 1548 1549 1551 1552 1553 1555 1556 1557 1558 1559 1560 1561 1562 1563 1564 1564 1565 1566 1567 1568 1570 1571 1572 1573 1575 1575 1575 1576 1577 1578 1579 1580 1581 1583
1525 1527 1531 1534 1537 1540 1542 1545 1546 1548 1549 1551 1552 1553 1555 1556 1557 1558 1559 1560 1561 1562 1563 1563 1564 1565 1566 1567 1568 1569 1571 1572 1572 1574 1575 1575 1576 1577 1578 1579 1580 1582 1583
1526 1530 1532 1535 1538 1541 1543 1545 1547 1548 1550 1551 1552 1553 1555 1556 1557 1558 1558 1559 1560 1561 1562 1563 1564 1565 1566 1566 1567 1568 1570 1571 1572 1573 1574 1574 1576 1577 1578 1579 1580 1582 1583
1529 1532 1535 1537 1539 1541 1543 1545 1547 1548 1549 1551 1552 1553 1554 1555 1556 1557 1557 1558 1559 1560 1561 1562 1563 1564 1564 1565 1566 1567 1568 1570 1571 1572 1573 1572 1574 1577 1578 1579 1580 1581 1583
1530 1533 1536 1538 1540 1543 1545 1546 1547 1548 1549 1550 1551 1552 1553 1554 1556 1557 1557 1558 1558 1559 1560 1560 1561 1562 1563 1564 1564 1565 1566 1567 1569 1571 1571 1571 1573 1575 1576 1578 1579 1580 1582
1531 1534 1536 1538 1540 1544 1545 1547 1548 1549 1549 1550 1551 1552 1553 1554 1555 1555 1556 1556 1556 1557 1558 1558 1560 1561 1562 1562 1562 1563 1564 1565 1567 1568 1569 1569 1571 1573 1574 1576 1577 1579 1580
1531 1534 1536 1538 1540 1542 1544 1546 1548 1549 1549 1549 1550 1551 1551 1552 1553 1554 1554 1554 1555 1556 1557 1557 1558 1559 1559 1560 1560 1561 1562 1562 1564 1565 1566 1566 1568 1570 1572 1573 1575 1576 1578
1531 1534 1536 1537 1539 1541 1543 1545 1547 1547 1548 1548 1549 1549 1550 1551 1552 1552 1552 1552 1553 1553 1554 1554 1555 1555 1556 1557 1557 1558 1559 1560 1561 1563 1563 1563 1564 1567 1568 1570 1572 1573 1575
1531 1533 1535 1537 1538 1540 1542 1544 1546 1546 1547 1548 1548 1548 1549 1550 1550 1550 1551 1551 1551 1551 1551 1551 1552 1552 1553 1554 1554 1554 1555 1556 1557 1558 1559 1560 1561 1563 1564 1566 1567 1569 1571
1530 1533 1535 1537 1538 1540 1542 1543 1545 1546 1546 1546 1547 1547 1548 1548 1548 1548 1549 1549 1549 1549 1549 1549 1549 1550 1550 1551 1551 1551 1552 1552 1552 1553 1555 1556 1556 1557 1559 1561 1563 1564 1567
1530 1532 1535 1537 1538 1540 1541 1543 1545 1546 1546 1546 1547 1547 1547 1547 1547 1547 1547 1547 1547 1547 1547 1548 1547 1547 1548 1548 1548 1548 1549 1549 1548 1549 1550 1551 1552 1553 1554 1555 1557 1559 1562
1529 1531 1534 1536 1538 1540 1541 1543 1544 1545 1546 1547 1547 1546 1546 1546 1546 1546 1546 1545 1545 1545 1546 1546 1545 1545 1545 1545 1545 1545 1546 1545 1545 1546 1546 1546 1547 1548 1549 1551 1552 1554 1556
1529 1531 1534 1536 1538 1540 1541 1543 1544 1545 1546 1546 1546 1545 1545 1545 1544 1544 1544 1543 1543 1543 1543 1543 1543 1542 1542 1542 1542 1543 1542 1542 1542 1542 1542 1542 1543 1543 1544 1546 1547 1548 1550
1529 1532 1534 1536 1538 1540 1541 1542 1543 1544 1545 1545 1545 1544 1544 1543 1543 1542 1542 1541 1541 1541 1541 1541 1540 1540 1540 1540 1540 1540 1539 1538 1538 1538 1538 1539 1539 1540 1541 1541 1542 1543 1544
1530 1532 1534 1536 1538 1540 1541 1542 1543 1544 1544 1544 1544 1543 1542 1542 1541 1541 1540 1539 1539 1539 1539 1538 1538 1537 1537 1538 1538 1537 1536 1536 1534 1534 1534 1534 1535 1536 1537 1537 1538 1539 1539
1530 1532 1535 1536 1538 1539 1540 1541 1542 1542 1543 1543 1542 1542 1541 1540 1540 1539 1538 1537 1537 1537 1537 1536 1536 1535 1535 1535 1535 1536 1535 1533 1532 1531 1531 1532 1532 1532 1533 1533 1533 1534 1535
1529 1531 1534 1535 1536 1537 1538 1539 1540 1541 1541 1541 1540 1540 1539 1538 1538 1537 1536 1536 1535 1534 1534 1534 1534 1532 1532 1532 1533 1533 1533 1533 1532 1530 1529 1529 1529 1529 1529 1529 1530 1530 1530
1528 1530 1532 1533 1534 1536 1536 1537 1537 1538 1538 1538 1537 1537 1536 1536 1536 1535 1534 1533 1532 1532 1532 1531 1530 1530 1530 1530 1530 1530 1529 1529 1529 1529 1527 1527 1526 1526 1526 1525 1525 1526 1526
1527 1529 1530 1531 1532 1534 1534 1535 1535 1535 1535 1535 1535 1535 1534 1534 1534 1534 1532 1531 1530 1529 1529 1528 1527 1527 1527 1526 1526 1526 1526 1526 1526 1526 1525 1524 1523 1523 1522 1522 1521 1522 1522